Preview of NWS' New Version of Forecast
This preview is not operational and should not be used for support decisions.

Regional Weather Roundup (RWR)

Issued by Gray - Portland, ME (GYX)

                            
305 
ASUS41 KGYX 212310
RWRGYX
WEATHER ROUNDUP FOR MAINE AND NEW HAMPSHIRE
NATIONAL WEATHER SERVICE GRAY ME
700 PM EDT SAT APR 21 2018

MEZ002-005-006-010-012-015-018-020-021-024-026-027-029-220000-
MAINE
  
CITY           SKY/WX    TMP DP  RH WIND       PRES   REMARKS
PORTLAND       FAIR      52  21  29 NW13G23   30.20R                  
SANFORD        FAIR      53  19  26 N9        30.21R                  
BAR HARBOR     CLOUDY    48  21  34 NW9G16    30.17R                  
WISCASSET      FAIR      50  21  32 VRB6      30.21R                  
ROCKLAND       CLOUDY    50  21  32 NW10      30.18R                  
FRYEBURG       FAIR      49  21  33 NW10G22   30.23R                  
LEWISTONAUBURN MOCLDY    50  22  33 NW14      30.21R                  
AUGUSTA        CLOUDY    49  22  34 NW9       30.20R                  
WATERVILLE     CLOUDY    48  20  32 NW14      30.17R                  
BANGOR         MOCLDY    47  22  37 NW15      30.17R                  
GREENVILLE       N/A     39  23  52 NW13G20   30.13R                  
MILLINOCKET    CLOUDY    46  21  37 NW9       30.15R                  
HOULTON        MOCLDY    44  21  40 NW8       30.10R                  
PRESQUE ISLE   FAIR      43  20  39 NW9       30.12                   
FRENCHVILLE    FAIR      42  19  39 NW13      30.10R                  
CARIBOU        MOCLDY    42  20  41 NW15G21   30.10R                  
$$

NHZ002-005-008-009-011-012-014-220000-
NEW HAMPSHIRE
  
CITY           SKY/WX    TMP DP  RH WIND       PRES   REMARKS
PORTSMOUTH     PTCLDY    53  17  23 NW15      30.19R                  
ROCHESTER      FAIR      52  20  28 NW12G21   30.20R                  
NASHUA         FAIR      56  17  21 NW13      30.21R                  
MANCHESTER     FAIR      58  14  17 N12       30.20R                  
CONCORD        FAIR      53  17  24 NW16G23   30.22R                  
LACONIA        FAIR      51  18  27 NW8       30.22                   
PLYMOUTH       FAIR      51  18  27 NW12G18   30.22R                  
BERLIN         MOCLDY    45  21  38 VRB6      30.21R                  
WHITEFIELD     FAIR      46  22  38 NW13      30.23R                  
JAFFREY        CLOUDY    54  20  26 NW5       30.21R                  
KEENE          FAIR      55  15  20 VRB6      30.23R                  
LEBANON        FAIR      53  16  23 NW9G20    30.23R                  
MT WASHINGTON  MOCLDY    18  16  93 W48G60      N/A  WCI  -6          
$$

VTZ005-007-008-220000-
VERMONT
  
CITY           SKY/WX    TMP DP  RH WIND       PRES   REMARKS
ST JOHNSBURY     N/A     47  21  35 MISG      30.23R                  
MONTPELIER     FAIR      46  20  35 NW9G18    30.28R                  
BURLINGTON     FAIR      52  17  25 N15G23    30.26S                  
$$

MAZ007-012-024-CTZ003-RIZ002-NYZ038-NYZ072-220000-
SOUTHERN NEW ENGLAND AND NY
  
CITY           SKY/WX    TMP DP  RH WIND       PRES   REMARKS
BOSTON         FAIR      57  17  21 NW17      30.20R                  
WORCESTER      FAIR      53  18  25 W10       30.20R                  
NANTUCKET      FAIR      44  38  79 SW8       30.25R                  
PROVIDENCE     FAIR      58  19  22 NW12      30.21R                  
HARTFORD       FAIR      56  20  24 NW15      30.24R                  
ALBANY         FAIR      55  16  21 NW14G21   30.27R                  
NEW YORK CITY  MOCLDY    60  21  22 NW13      30.26R                  
$$

ANZ081-ANZ082-ANZ150-NHZ014-MEZ023>029-220000-
COASTAL MARINE OBSERVATIONS
  
STATION/POSITION TIME  TEMP    WIND        PRES    WAVE
                       AIR SEA DIR/SP/G            HT/PER
                 (UTC) (F)     (DEG/KT/KT) (MB)    (FT/S)
MOUNT DESERT ROC 2300   42     230/ 16/ 17 1021.7R
MATINICUS ROCK   2300   42     240/ 15/ 16 1021.6R
ISLE OF SHOALS   2300   47     140/  6/  8 1022.6R
JEFFREYS LEDGE   2236      42                N/A     2/10
CASHES LEDGE BUO 2250   43 42              1022.5R   2/ 4
$$

.............KEY..............
   WCI - WIND CHILL
   TC  - TEMPERATURE IN CELSIUS
   VSB - VISIBILITY IN MILES
   HX  - HEAT INDEX
   FAIR- INDICATES FEW OR NO CLOUDS BELOW 12,000 FT, WITH NO 
         SIGNIFICANT WEATHER AND/OR OBSTRUCTIONS TO VISIBILITY.